This is the latest recevied weather packets stored in our database for station/object BARLOW-WX. If no packets are shown the sender has not sent any weather packets the latest 10 day(s).
| Time | Temp. | Humidity | Pressure | Rain* | Wind** | Luminosity | Snow |
|---|---|---|---|---|---|---|---|
| 1787668280 | 17.78° C | 80% | 992.1 hPa | 0 mm | - | - | - |
| 1787667377 | 17.22° C | 80% | 992.1 hPa | 0 mm | - | - | - |
| 1787666479 | 16.67° C | 81% | 992.5 hPa | 0 mm | - | - | - |
| 1787665578 | 16.11° C | 87% | 992.2 hPa | 0 mm | - | - | - |
| 1787664679 | 15.56° C | 87% | 992.2 hPa | 0 mm | - | - | - |
| 1787663779 | 15° C | 87% | 992.1 hPa | 0 mm | - | - | - |
| 1787662883 | 13.89° C | 87% | 992.1 hPa | 0 mm | - | - | - |
| 1787661979 | 13.33° C | 94% | 992 hPa | 0 mm | - | - | - |
| 1787661079 | 12.78° C | 96% | 991.1 hPa | 0 mm | - | - | - |
| 1787660178 | 12.22° C | 96% | 991.1 hPa | 0 mm | - | - | - |
| 1787659280 | 11.67° C | 96% | 991.1 hPa | 0 mm | - | - | - |
| 1787658378 | 11.11° C | 88% | 991.6 hPa | 0 mm | - | - | - |
| 1787657477 | 10.56° C | 89% | 990.9 hPa | 0 mm | - | - | - |
| 1787656578 | 10.56° C | 89% | 990.9 hPa | 0 mm | - | - | - |
| 1787655679 | 11.11° C | 89% | 990.9 hPa | 0 mm | - | - | - |
| 1787654778 | 11.11° C | 89% | 990.4 hPa | 0 mm | - | - | - |
| 1787653880 | 11.11° C | 90% | 991.8 hPa | 0 mm | - | - | - |
| 1787652980 | 11.11° C | 90% | 991.8 hPa | 0 mm | - | - | - |
| 1787652081 | 11.67° C | 90% | 991.8 hPa | 0 mm | - | - | - |
| 1787651180 | 11.67° C | 88% | 991.5 hPa | 0 mm | - | - | - |
| 1787650280 | 11.67° C | 88% | 991.5 hPa | 0 mm | - | - | - |
| 1787649381 | 11.67° C | 88% | 991.5 hPa | 0 mm | - | - | - |
| 1787648481 | 11.67° C | 88% | 991.5 hPa | 0 mm | - | - | - |
| 1787647579 | 12.22° C | 90% | 990.6 hPa | 0 mm | - | - | - |
| 1787646680 | 12.22° C | 89% | 990 hPa | 0 mm | - | - | - |
* Rain latest hour (hover to see other rain measurements)
** Current wind speed in m/s (hover to see current wind gust speed)